Regional Weather Roundup
Issued by NWS

Home | Current Version | Previous Version | Text Only | Print | Product List | Glossary On
Versions: 1 2 3 4 5 6 7 8 9 10 11 12 13 14 15 16 17 18 19 20 21 22 23 24 25 26 27 28 29 30 31 32 33 34 35 36 37 38 39 40 41 42 43 44 45 46 47 48 49 50
000
ASUS43 KMKX 231521
RWRWI

WISCONSIN REGIONAL WEATHER ROUNDUP
NATIONAL WEATHER SERVICE MILWAUKEE/SULLIVAN WI
1000 AM CDT SUN APR 23 2017

NOTE: "FAIR" INDICATES FEW OR NO CLOUDS BELOW 12,000 FEET WITH NO
SIGNIFICANT WEATHER AND/OR OBSTRUCTIONS TO VISIBILITY.

WIZ001-002-006>008-014>016-023>028-231600-
NORTHWEST WISCONSIN

CITY           SKY/WX    TMP DP  RH WIND       PRES   REMARKS
SUPERIOR ARPT  LGT RAIN  34  33  97 E9G16     30.23R WCI  27
ASHLAND        CLOUDY    36  34  92 NE15      30.21R FOG     WCI  27
HAYWARD        CLOUDY    38  32  79 NE12      30.16S WCI  30
SIREN          CLOUDY    39  35  85 E8        30.15S WCI  34
CUMBERLAND     CLOUDY    43  36  75 NE12G17   30.12S
RICE LAKE      CLOUDY    47  38  71 N15       30.14R
CHETEK         CLOUDY    50  39  65 NE6       30.12R
LADYSMITH      CLOUDY    45  38  75 NE12      30.13F
EAU CLAIRE     SUNNY     52  39  61 NE10      30.09S
MENOMONIE      SUNNY     53  40  59 E6        30.10F
NEW RICHMOND   SUNNY     52  38  59 N10G16    30.11S
OSCEOLA        PTSUNNY   50  40  68 NE9       30.14S
$$

WIZ003>005-009-010-017-018-231600-
NORTH CENTRAL WISCONSIN

CITY           SKY/WX    TMP DP  RH WIND       PRES   REMARKS
MANITOWISH WTR CLOUDY    33  33 100 NE6       30.15S WCI  28
ARBOR VITAE    LGT SNOW  37  35  94 NE3       30.13F
WOODRUFF       LGT SNOW  37  35  94 NE3       30.13F
RHINELANDER    CLOUDY    42  36  79 N9        30.14R
EAGLE RIVER    LGT SNOW  33  32  98 NE6       30.15R VSB 3/4 WCI  27
LAND O LAKES   CLOUDY    33  32  96 NE5       30.17S FOG     WCI  28
PHILLIPS       CLOUDY    38  36  92 NE12      30.13S WCI  31
TOMAHAWK       CLOUDY    44  38  79 NE3       30.13S
MEDFORD        MOSUNNY   51  40  68 NE12      30.10R
MERRILL        SUNNY     52  40  63 NE7       30.11R
$$

WIZ029-030-035-036-043>047-231600-
CENTRAL WISCONSIN

CITY           SKY/WX    TMP DP  RH WIND       PRES   REMARKS
WAUSAU         SUNNY     54  38  54 N6        30.08R
MOSINEE        MOSUNNY   55  37  50 NW7       30.09S
MARSHFIELD     SUNNY     58  39  49 NW9       30.07S
STEVENS POINT  SUNNY     57  36  45 W6        30.08S
WAUPACA        SUNNY     63  34  33 W5        30.09S
WAUTOMA        SUNNY     64  36  35 W13       30.09S
WISC RAPIDS    SUNNY     61  37  41 VRB6      30.09F
CAMP DOUGLAS   MOSUNNY   63  36  36 W12       30.09S
$$

WIZ011>013-019>022-031-037>040-048>050-231600-
NORTHEAST WISCONSIN

CITY           SKY/WX    TMP DP  RH WIND       PRES   REMARKS
ANTIGO         SUNNY     50  39  64 NE10      30.10R
SHAWANO        SUNNY     55  41  59 NE9       30.11R
OCONTO         MOSUNNY   45  36  71 E9        30.14R
STURGEON BAY   NOT AVBL
GREEN BAY      SUNNY     48  43  82 NE18      30.12R
MANITOWOC      SUNNY     51  39  63 NE13G23   30.12R
APPLETON       MOSUNNY   59  32  36 NW9       30.08R
CLINTONVILLE   SUNNY     59  34  38 NE3       30.09R
OSHKOSH        SUNNY     63  38  39 NW10      30.09R
$$

WIZ032>034-041-042-053>061-231600-
SOUTHWEST WISCONSIN

CITY           SKY/WX    TMP DP  RH WIND       PRES   REMARKS
LA CROSSE      SUNNY     62  39  42 VRB3      30.10S
SPARTA         SUNNY     62  39  43 W5        30.10S
VIROQUA        SUNNY     61  36  38 W8        30.11S
BOSCOBEL       SUNNY     62  36  37 SW6       30.12F
PRAIRIE DU CHI SUNNY     60  34  37 CALM      30.12F
PLATTEVILLE    SUNNY     59  37  43 W9        30.14F
$$

WIZ056-057-062-063-064-067-068-231600-
SOUTH CENTRAL WISCONSIN

CITY           SKY/WX    TMP DP  RH WIND       PRES   REMARKS
REEDSBURG      SUNNY     62  38  41 W7        30.10F
BARABOO/DELLS  SUNNY     62  34  35 W8        30.10F
LONE ROCK      SUNNY     60  38  43 W6        30.12F
MINERAL POINT  SUNNY     61  34  36 W9        30.13F
MADISON        MOSUNNY   61  33  35 VRB5      30.11F
MIDDLETON      SUNNY     63  34  33 W10       30.12F
WATERTOWN      SUNNY     61  37  41 W6        30.11F
MONROE         SUNNY     57  32  38 W13       30.13S
JANESVILLE     SUNNY     61  32  33 W7        30.13S
$$

WIZ051-052-058>065-066-070>072-231600-
SOUTHEAST WISCONSIN

CITY           SKY/WX    TMP DP  RH WIND       PRES   REMARKS
MILWAUKEE      MOSUNNY   63  29  27 VRB7      30.12F
WAUKESHA       SUNNY     59  30  33 W5        30.13F
MILWAUKEE/TIMM SUNNY     61  27  27 W9        30.12F
RACINE         SUNNY     60  32  34 W8        30.14S
KENOSHA        SUNNY     61  33  35 W8        30.13S
FOND DU LAC    SUNNY     61  37  41 SW9       30.09F
SHEBOYGAN      SUNNY     63  37  38 W7        30.09F
WEST BEND      SUNNY     61  32  33 W8        30.10F
JUNEAU         SUNNY     58  39  48 SW7       30.12S
$$

LSZ147-162-231600-
LAKE SUPERIOR

STATION/POSITION TIME  TEMP    WIND        PRES    WAVE
                       AIR SEA DIR/SP/G            HT/PER
                 (UTC) (F)     (DEG/KT/KT) (MB)    (FT/S)
DEVILS ISLAND    1500   34      60/ 13/ 16 1024.6F
PORT WING        1440   34      40/ 15/ 22 1023.4F
SAXON HARBOR     1440   35      50/ 17/ 20 1022.4F
$$

LMZ867-665-643>646-231600-
LAKE MICHIGAN

STATION/POSITION TIME  TEMP    WIND        PRES    WAVE
                       AIR SEA DIR/SP/G            HT/PER
                 (UTC) (F)     (DEG/KT/KT) (MB)    (FT/S)
CHAMBERS ISLAND  1440   39      10/ 16/ 18 1021.0R
N MID LAKE BUOY  1450   37 37   20/ 14/ 16 1022.4R   2/ 4
NORTHPORT PIER   1440   38     360/ 13/ 17 1021.3R
KEWAUNEE LAKESHO 1454   42      50/ 16/ 19 1020.1R
SHEBOYGAN LAKESH 1500   61     240/  8/  9 1018.7F
PORT WASHINGTON  1440   63     260/  7/ 11 1020.0F
MILWAUKEE LAKESH 1450   60     260/  6/  7   N/A
KENOSHA   LAKESH 1500   60     270/  6/  8 1020.0
$$

TC  - TEMPERATURE IN CELSIUS
VSB - VISIBILITY IN STATUTE MILES
WCI - WIND CHILL INDEX
HX  - HEAT INDEX




USA.gov is the U.S. government's official web portal to all federal, state and local government web resources and services.